SL-16 DEB, 43354

Orbit data source: Space-Track

SL-16 DEB, 43354 is space debris in LEO originally from a launch on Wed, 04 Sep 1996 UTC launched from the Tyuratam Missile And Space Complex (TTMTR). Debris objects in space refer to the collection of defunct objects orbiting the Earth. Examples of debris include non-operational satellites, rocket bodies, and fragments generated from explosions, collisions, or faulty payload assembly.

Loading next visibility...
Identifier
43354, 1996-051P
Orbit
LEO
Country
Flag of CISCIS
Related business
Manufacturer
Unknown
Mission
Spacecraft
Bus & Motor
Unknown
Mass
Unknown
Launch date (UTC)
1996-09-04 (30 years ago)
Launch vehicle
Unknown
Launch site
Tyuratam Missile And Space Complex (TTMTR)
Object type
Payload
Rocket body
Debris
Shape & HBR
Unknown shape, 0.1 m
Radar Cross Section
Medium (>0.1 m² and <1 m²)

Expand to show TLE details & history
Last TLE update: 6 days ago

TLE from 6 days ago
0 SL-16 DEB
1 43354U 96051P   26167.64527109  .00000475  00000-0  26218-3 0  9994
2 43354  71.1913 310.0703 0091143 100.2889 260.8527 14.14185200648333
Epoch: 2026-06-16T15:29Z
TLE epoch observation values (Epoch: 2026-06-16T15:29:11.422Z)
Latitude
0.00008°
Longitude
172.8584°
Altitude
858.549 km
Speed
7.418 km/s
True Right ascension
20h 40m 16s
True Declination
0° 00' 00"
Sunlit
Object was in full shadow at epoch
Visualization orbit readout
Latitude
Unknown
Longitude
Unknown
Altitude
Unknown
Speed
Unknown
Apparent Right ascension
Unknown
Apparent Declination
Unknown
Sunlit
N/A
Visualization observer readout
Local Sidereal Time
21:37:15
Azimuth
Unknown
Elevation
Unknown
Doppler factor
Unknown
Orbital elements
Apogee altitude
908.808 km
Perigee altitude
777.177 km
Semi-major axis
7,221.129 km
Eccentricity
0.00911
Inclination
71.1913°
RAAN
310.0703°
Arg. of periapsis
100.2889°
True anomaly
259.82348°
Mean anomaly
260.8527°
Eccentric anomaly
260.3379°
Mean motion
3.537 °/min
Orbital period
101.78 mins
BSTAR
0.00026218
Loading maneuver chart data...
Computing Atmospheric mass density...
Loading historical data...
Loading historical data...
Loading historical data...
Loading historical data...
Loading historical data...
Loading historical data...
Loading historical data...

Documentation

Showing up to 5 results
|